Weather Roundup
Issued by NWS

Home | Current Version | Previous Version | Text Only | Print | Product List | Glossary On
Versions: 1 2 3 4 5 6 7 8 9 10 11 12 13 14 15 16 17 18 19 20 21 22 23 24 25 26 27 28 29 30 31 32 33 34 35 36 37 38 39 40 41 42 43 44 45 46 47 48 49 50
000
NZUS93 KARX 031659
HRRWXR

CURRENT HOURLY OBSERVATIONS ACROSS
MUCH OF THE UPPER MISSISSIPPI VALLEY
NATIONAL WEATHER SERVICE LA CROSSE WI
1200 PM CDT SUN MAY 03 2015


...SOUTHEAST MINNESOTA...


CITY           SKY/WX    TMP DP  RH WIND       PRES   REMARKS
ROCHESTER      MOSUNNY   77  52  41 SW10      29.82S
ROCHESTER/MAYO FAIR      73  53  48 S6        29.81S
WINONA         MOSUNNY   73  54  49 CALM      29.82F
AUSTIN         MOSUNNY   75  54  46 SW14G23   29.81R
ALBERT LEA     MOSUNNY   75  52  43 S8        29.80S
DODGE CENTER   MOSUNNY   75  54  46 SW8       29.80F
PRESTON        MOSUNNY   74  52  46 CALM      29.83F
OWATONNA       MOSUNNY   79  48  34 SW10G17   29.79S
FARIBAULT      MOSUNNY   77  54  44 SW3       29.79S
$$

...ELSEWHERE IN MINNESOTA...


CITY           SKY/WX    TMP DP  RH WIND       PRES   REMARKS
MINNEAPOLIS    PTSUNNY   74  55  51 CALM      29.79R
INTNL FALLS    PTSUNNY   65  37  35 NW20G26   29.79R
DULUTH         MOSUNNY   76  44  32 VRB5      29.76R
RED WING       PTSUNNY   73  52  46 SE5       29.78S
REDWOOD FALLS  SUNNY     77  54  44 W10G17    29.76R
MANKATO        SUNNY     75  52  43 SW6       29.78F
WORTHINGTON    SUNNY     75  54  46 SW13      29.79R
FAIRMONT       SUNNY     79  48  34 SW9       29.79S
$$

...SOUTHWEST WISCONSIN...


CITY           SKY/WX    TMP DP  RH WIND       PRES   REMARKS
LA CROSSE      PTSUNNY   73  53  49 S9        29.82F
PRAIRIE DU CHI CLOUDY    71  51  49 S10       29.85F
BOSCOBEL       CLOUDY    74  54  49 SW14G20   29.86S
LONE ROCK      NOT AVBL
PLATTEVILLE    CLOUDY    67  52  58 SW18      29.91R
FORT MC COY    PTSUNNY   73  50  44 S8G18     29.85R
VIROQUA        FAIR      70  52  51 SW12      29.87R
WIS DELLS      NOT AVBL
$$

...ELSEWHERE IN WISCONSIN...


CITY           SKY/WX    TMP DP  RH WIND       PRES   REMARKS
MILWAUKEE      CLOUDY    72  48  42 S12       29.93F
MADISON        CLOUDY    73  53  49 S9        29.89S
GREEN BAY      PTSUNNY   75  50  41 SW13G22   29.86F
EAU CLAIRE     NOT AVBL
BLACK RVR FLS  FAIR      71  49  44 SW9       29.83S
MEDFORD        MOSUNNY   68  51  55 S10       29.83R
WAUSAU         MOSUNNY   73  51  46 S10       29.82F
WIS RAPIDS     MOSUNNY   75  49  39 SW12      29.85F
MARSHFIELD     MOSUNNY   74  51  44 S15       29.83F
RICE LAKE      MOSUNNY   71  52  51 SW8       29.83R
$$

...NORTHEAST IOWA...


CITY           SKY/WX    TMP DP  RH WIND       PRES   REMARKS
DECORAH        MOSUNNY   73  54  49 SW8G16    29.83S
MASON CITY     MOSUNNY   77  55  46 SW10      29.82S
CHARLES CITY   MOSUNNY   73  57  56 SW9       29.83S
OELWEIN        MOSUNNY   72  55  56 S12G20    29.86R
$$

...ELSEWHERE IN IOWA...


CITY           SKY/WX    TMP DP  RH WIND       PRES   REMARKS
DES MOINES     CLOUDY    77  57  50 S14G20    29.82R
IOWA CITY      CLOUDY    63  57  81 NE6       29.91R
FORT DODGE     SUNNY     79  59  50 SW8       29.81R
$$

...NORTHERN ILLINOIS...


CITY           SKY/WX    TMP DP  RH WIND       PRES   REMARKS
CHICAGO-OHARE  PTSUNNY   75  47  36 S16G22    29.96F
CHICAGO-MIDWAY PTSUNNY   78  46  32 SW16      29.98S
MOLINE         CLOUDY    76  56  49 S10G18    29.87S
ROCKFORD       CLOUDY    67  55  65 S18       29.96R
PEORIA         PTSUNNY   78  53  41 SW16      29.96F
$$

NOTE: "FAIR" INDICATES FEW OR NO CLOUDS BELOW 12,000 FEET WITH NO
SIGNIFICANT WEATHER AND/OR OBSTRUCTIONS TO VISIBILITY. WIND
SPEEDS ARE IN MILES-PER-HOUR.



USA.gov is the U.S. government's official web portal to all federal, state and local government web resources and services.